Regional Weather Roundup
Issued by NWS

Home | Current Version | Previous Version | Text Only | Print | Product List | Glossary Off
Versions: 1 2 3 4 5 6 7 8 9 10 11 12 13 14 15 16 17 18 19 20 21 22 23 24 25 26 27 28 29 30 31 32 33 34 35 36 37 38 39 40 41 42 43 44 45 46 47 48 49 50

000
ASUS43 KOAX 250310
RWRNE

WEATHER ROUNDUP FOR NEBRASKA
NATIONAL WEATHER SERVICE OMAHA NE
1000 PM CDT WED AUG 24 2016

NOTES: SATELLITE DATA IS BEING USED TO AUGMENT CLOUD COVER ABOVE
       12000 FEET.
       "FAIR" INDICATES FEW OR NO CLOUDS BELOW 12,000 FEET WITH NO
       SIGNIFICANT WEATHER AND/OR OBSTRUCTIONS TO VISIBILITY.

  * THESE STATIONS DO NOT REPORT WEATHER SUCH AS RAIN...SNOW OR FOG.

NEZ001>004-019>022-054>056-250400-
NEBRASKA PANHANDLE

CITY           SKY/WX    TMP DP  RH WIND       PRES   REMARKS
SCOTTSBLUFF    CLOUDY    63  46  54 N13       30.22R
ALLIANCE       MOCLDY    59  48  67 SE8       30.20R
CHADRON        LGT RAIN  59  52  77 W10       30.26R
SIDNEY         PTCLDY    60  42  51 E6        30.24R
$$

NEZ057>060-069>072-079>082-250400-
SOUTHWEST NEBRASKA

CITY           SKY/WX    TMP DP  RH WIND       PRES   REMARKS
NORTH PLATTE   CLOUDY    63  51  65 CALM      30.17R
IMPERIAL       PTCLDY    64  42  44 S6        30.19R
LEXINGTON      CLOUDY    66  51  58 SE5       30.14R
MCCOOK         CLOUDY    65  49  56 E7        30.14R
OGALLALA       PTCLDY    62  46  55 CALM      30.20R
$$

NEZ005>010-023>029-035>040-094-250400-
NORTH CENTRAL NEBRASKA

CITY           SKY/WX    TMP DP  RH WIND       PRES   REMARKS
VALENTINE      CLOUDY    61  50  67 NW3       30.17R
AINSWORTH      CLOUDY    62  56  81 CALM      30.17R
BROKEN BOW     CLOUDY    60  56  86 N5        30.14R
O`NEILL        CLOUDY    64  56  76 CALM      30.15R
ORD            LGT RAIN  65  58  78 CALM      30.12R
THEDFORD       CLOUDY    65  51  60 CALM      30.19R
$$

NEZ041-046>049-061>064-073>077-083>087-250400-
SOUTH CENTRAL NEBRASKA

CITY           SKY/WX    TMP DP  RH WIND       PRES   REMARKS
GRAND ISLAND   PTCLDY    60  54  80 CALM      30.11S
AURORA         CLEAR     59  57  94 N3        30.10F
HASTINGS       PTCLDY    60  55  83 CALM      30.13R
HEBRON         CLOUDY    63  60  93 CALM      30.08S
HOLDREGE       CLOUDY    62  56  80 CALM      30.13S
KEARNEY *      CLOUDY    64  55  72 E5        30.12S
YORK           CLEAR     59  57  94 N7        30.10S
$$

NEZ011>018-030>034-042>045-250400-
NORTHEAST NEBRASKA

CITY           SKY/WX    TMP DP  RH WIND       PRES   REMARKS
NORFOLK        CLEAR     57  55  93 W3        30.11R
ALBION         CLOUDY    60  56  89 CALM      30.12R
BLAIR          CLOUDY    66  62  87 NW5       30.08S
FREMONT        MOCLDY    62  61  94 NW5       30.08S
TEKAMAH        PTCLDY    63  60  90 CALM      30.07R
WAYNE          PTCLDY    59  58  96 SW3       30.11R
$$

NEZ050>053-065>068-078-088>093-250400-
SOUTHEAST NEBRASKA

CITY           SKY/WX    TMP DP  RH WIND       PRES   REMARKS
LINCOLN        PTCLDY    66  62  87 N6        30.07S
OMAHA EPPLEY   CLOUDY    68  62  81 NW8       30.06R
BEATRICE       PTCLDY    65  63  94 N7        30.05F
FALLS CITY     CLOUDY    69  69 100 SE3       30.02S
NEBRASKA CITY  CLOUDY    68  68 100 NW5       30.07R
PLATTSMOUTH    CLOUDY    68  65  91 NW3       30.07R
$$

NEZ044-045-051>053-067-250400-
OMAHA AREA

CITY           SKY/WX    TMP DP  RH WIND       PRES   REMARKS
OMAHA EPPLEY   CLOUDY    68  62  81 NW8       30.06R
BLAIR          CLOUDY    66  62  87 NW5       30.08S
FREMONT        MOCLDY    62  61  94 NW5       30.08S
MILLARD        CLOUDY    69  61  76 NW5       30.07R
OFFUTT AFB     CLOUDY    70  62  76 CALM      30.06R
PLATTSMOUTH    CLOUDY    68  65  91 NW3       30.07R
WAHOO          FAIR      62  60  93 NW3       30.08S
$$




USA.gov is the U.S. government's official web portal to all federal, state and local government web resources and services.